Flag for U.S.A. Weather past 2 weeks in Kalispell, Montana, U.S.A.

Now
60 °F

Overcast.


Feels Like: 60 °F
Forecast: 47 / 64 °F
Wind: 14 mph from Northeast

Location: Kalispell - Glacier Park International

Current Time: Aug 23, 2014 at 11:19:42 AM

Latest Report: Aug 23, 2014 at 10:55 AM


Visibility: 10 mi

Pressure: 30.17 "Hg

Humidity: 49%

Dew point: 41 °F

Location of KalispellLocation

Historic Weather in Kalispell — Graph

°F

Kalispell temperature yesterday

Maximum temperature yesterday: 63 °F (at 5:55 PM)
Minimum temperature yesterday: 56 °F (at 10:55 AM)
Average temperature yesterday: 58 °F

Past Weeks' High & Low Weather Summary

 TemperatureHumidityPressure
High93 °F (Aug 11, 6:55 PM)100% (Aug 15, 7:55 AM)30.19 "Hg (Aug 15, 7:55 AM)
Low47 °F (Aug 9, 5:55 AM)14% (Aug 11, 6:55 PM)29.67 "Hg (Aug 19, 2:55 PM)
Average65 °F65%29.98 "Hg
* Reported Aug 8 9:55 AM — Aug 23 9:55 AM, Kalispell, Weather by CustomWeather, © 2014

Note: Actual official high and low records may vary slightly from our data, if they occured in-between our weather recording intervals... More about our weather records

Advertising

Kalispell weather history for previous 24 hours

 ConditionsComfort  
Time TempWeatherWind HumidityBarometerVisibility
9:55 AM
Aug 23
56 °FMostly cloudy.9 mph65%30.18 "Hg10 mi
8:55 AM54 °FBroken clouds.10 mph64%30.18 "Hg10 mi
7:55 AM52 °FPartly sunny.6 mph72%30.17 "Hg10 mi
6:55 AM52 °FOvercast.7 mph66%30.16 "Hg10 mi
5:55 AM53 °FOvercast.5 mph61%30.15 "Hg10 mi
4:55 AM54 °FOvercast.9 mph57%30.15 "Hg10 mi
3:55 AM55 °FPassing clouds.13 mph55%30.14 "Hg10 mi
2:55 AM55 °FClear.17 mph55%30.14 "Hg10 mi
1:55 AM56 °FPassing clouds.16 mph53%30.15 "Hg10 mi
12:55 AM56 °FOvercast.16 mph53%30.16 "Hg10 mi
11:55 PM
Aug 22
56 °FOvercast.12 mph53%30.16 "Hg10 mi
10:55 PM57 °FOvercast.16 mph53%30.14 "Hg10 mi
9:55 PM58 °FPassing clouds.20 mph51%30.13 "Hg10 mi
8:55 PM59 °FOvercast.17 mph51%30.12 "Hg10 mi
7:55 PM60 °FOvercast.15 mph52%30.10 "Hg10 mi
6:55 PM61 °FMore clouds than sun.18 mph50%30.08 "Hg10 mi
5:55 PM63 °FMostly cloudy.20 mph50%30.07 "Hg10 mi
4:55 PM61 °FOvercast.5 mph70%30.07 "Hg10 mi
3:55 PM60 °FMostly cloudy.7 mph75%30.06 "Hg10 mi
2:55 PM57 °FMostly cloudy.6 mph83%30.08 "Hg10 mi
1:55 PM56 °FOvercast.5 mph87%30.09 "Hg10 mi
12:55 PM56 °FLight rain. Overcast.5 mph90%30.09 "Hg10 mi
11:55 AM56 °FOvercast.9 mph81%30.09 "Hg10 mi
Weather by CustomWeather, © 2014

See weather overviewHow to use our weather pages